Starlink 34127

operational
NORAD ID: 63810 Int'l Des: 2025-092 Owner: SPXS Country: US Constellation: starlink
LEOCIRCULAR

关于 Starlink 34127

正在加载描述...

实时位置

正在加载3D地球...

即将过境

高度历史

Altitude vs Time

uPlot chart will show altitude changes over time

两行轨道根数

1 63810U 25092G 26035.58842679 .00026835 00000-0 98085-3 0 9998
2 63810 42.9985 359.3633 0001309 283.1641 76.9065 15.27589304 43551
Epoch: Feb 4, 2026 • Age: 16 hours

当前状态

高度 483.0 km
速度 7.63 km/s
星下点 -4.67°S, 128.51°E
发射日期 May 4, 2025
运行时间 0.7 years
类型 internet

技术详情

分类 Payload
质量 575.00 kg
干质量 530.00 kg
总质量 575.00 kg
长度 0.30 m
直径 4.10 m
跨度 29.00 m
形状 Box + pan
制造商 SPXS
平台类型 Starlink V2MO
阶段状态 In Orbit
所有者/国家 SPXS/US

大型星座

Loading constellations...